{"data":{"norad_id":67286,"intl_designator":"2025-313AQ","name":"MULE 4T","alt_names":[],"object_type":"PAYLOAD","status":"ACTIVE","operator":null,"country":"CIS","launch_date":"2025-12-28","launch_site_code":"VOSTO","launch_vehicle":null,"mission":null,"orbit_class":"UNKNOWN","rcs_meters":null,"size_class":null,"mass_kg":null,"dimensions":null,"purposes":[],"wikipedia_slug":null,"has_3d_model":false,"image_url":null,"decayed_at":null,"tle_current":{"epoch":"2026-05-25T03:50:38.579136Z","epoch_age_seconds":71376,"freshness":"FRESH","line1":"1 67286U 25313AQ  26145.16016874  .00007874  00000+0  32913-3 0  9990","line2":"2 67286  97.3940 220.4080 0011207  80.1037 280.1464 15.23822172 22461","mean_motion":15.23822172,"eccentricity":0.0011207,"inclination_deg":97.394,"raan_deg":220.408,"arg_perigee_deg":80.1037,"mean_anomaly_deg":280.1464,"bstar":0.00032913,"rev_number":2246,"period_min":94.499215621073,"perigee_km":486.62253496787,"apogee_km":502.02647017974,"semimajor_km":6872.4615025738,"source":"CELESTRAK","updated_at":"2026-05-25T13:38:06.854906Z"}}}